Location: *
(34.6903°N, 135.5184°E)
Time: 21:09:01
(UTC+00:00)

Cosmos 2219 - Pass Details

Date: 22 September 2019
Orbit: 834 x 859 km, 71.1° (Epoch: 19 October)

Event Time Altitude Azimuth Distance (km) Brightness Sun altitude
Rises 20:16:30 0° 332° (NNW) 3,415 6.1 -6.9°
Reaches altitude 10° 20:19:02 10° 326° (NW) 2,472 5.4 -6.4°
Maximum altitude 20:24:25 46° 255° (WSW) 1,112 3.5 -5.3°
Drops below altitude 10° 20:29:45 10° 183° (S) 2,442 5.6 -4.2°
Sets 20:32:15 0° 177° (S) 3,370 6.3 -3.7°
